Regional Weather Roundup
Issued by NWS

Home | Current Version | Previous Version | Text Only | Print | Product List | Glossary On
Versions: 1 2 3 4 5 6 7 8 9 10 11 12 13 14 15 16 17 18 19 20 21 22 23 24 25 26 27 28 29 30 31 32 33 34 35 36 37 38 39 40 41 42 43 44 45 46 47 48 49 50
000
ASUS43 KLSX 230907
RWRMO

WEATHER SUMMARY FOR MISSOURI
NATIONAL WEATHER SERVICE SPRINGFIELD MO
400 AM CDT FRI JUN 23 2017

NOTE: "FAIR" INDICATES FEW OR NO CLOUDS BELOW 12,000 FEET WITH NO
       SIGNIFICANT WEATHER AND/OR OBSTRUCTIONS TO VISIBILITY.
       CURRENT SKY AND/OR WEATHER CONDITIONS ARE NOT AVAILABLE FOR
       CHILLICOTHE AND FARMINGTON.

MOZ001>031-035>038-043-044-053-054-231000-
...NORTHERN AND WESTERN MISSOURI...

CITY           SKY/WX    TMP DP  RH WIND       PRES   REMARKS
KANSAS CTY INT CLOUDY    75  73  93 NW3       29.70R
KANSAS C DTWN  MOCLDY    80  73  79 CALM      29.68S
LEE`S SUMMIT   MOCLDY    76  74  93 SW7       29.69F
ST JOSEPH      CLOUDY    73  71  93 N17       29.76R
CHILLICOTHE      N/A     75  73  93 S3        29.70R
KIRKSVILLE     HVY RAIN  69  67  93 N20G29    29.75R FOG

$$
MOZ066>068-077>081-088>096-101>105-231000-
...SOUTHWEST MISSOURI...

CITY           SKY/WX    TMP DP  RH WIND       PRES   REMARKS
SPRINGFIELD    MOCLDY    73  72  96 S3        29.72F
JOPLIN         CLEAR     74  72  93 S3        29.71F
BRANSON          N/A     72  72 100 N5        29.73F FOG

$$
MOZ032>034-039>042-045>050-055>058-069>072-231000-
...CENTRAL MISSOURI...

CITY           SKY/WX    TMP DP  RH WIND       PRES   REMARKS
COLUMBIA       CLOUDY    74  73  97 S7        29.69F
JEFFERSON CITY PTCLDY    77  72  84 CALM      29.69F
ROLLA          CLOUDY    73  72  96 S7        29.72F
SEDALIA        CLEAR     75  74  96 S9        29.69F
WHITEMAN AFB   PTCLDY    74  74 100 SW8       29.68F
WARRENSBURG    CLEAR     73  70  88 S6        29.68S
OSAGE BEACH    MOCLDY    73  72  96 SE8       29.71F

$$
MOZ051-052-059>065-231000-
...EAST CENTRAL MISSOURI...

CITY           SKY/WX    TMP DP  RH WIND       PRES   REMARKS
ST LOUIS INTL  MOCLDY    79  72  79 SW9       29.71F
SPIRIT OF STL  CLOUDY    76  74  93 S6        29.69F
ST CHARLES     CLOUDY    76  75  97 MISG      29.69F

$$
MOZ072>076-082>087-097>100-106>115-231000-
...SOUTH CENTRAL AND SOUTHEAST MISSOURI...

CITY           SKY/WX    TMP DP  RH WIND       PRES   REMARKS
CAPE GIRARDEAU RAIN      76  73  91 S9        29.71F FOG
FARMINGTON     CLOUDY    75  73  93 SE3       29.74F
POPLAR BLUFF   TSTM      76  76 100 S8        29.69F
WEST PLAINS    CLOUDY    74  73  97 NE5       29.72F

$$




USA.gov is the U.S. government's official web portal to all federal, state and local government web resources and services.